Location: El Mouella
(16.4949°N, 9.1594°W)
Time: 23:07:10
(UTC+00:00)

STARLINK-60 - Pass Details

Date: 05 October 2020
Orbit: 345 x 354 km, 53.0° (Epoch: 29 October)

Event Time Altitude Azimuth Distance (km) Brightness Sun altitude
Rises 19:10:23 0° 217° (SW) 2,166 7.3 -12.4°
Reaches altitude 10° 19:12:24 10° 218° (SW) 1,317 6.1 -12.8°
Maximum altitude 19:15:20 84° 306° (NW) 355 2.6 -13.5°
Enters shadow 19:17:25 17° 34° (NE) 970 4.6 -14.0°
